Zurück zum Katalog

STARLINK-30363

AktivKommunikationVLEO
NORAD 57744·PAYLOAD·🇺🇸 United States

Gestartet Sep 1, 2023 von Cape Canaveral Space Force Station

Loading…

Nächste Überflüge (nächste 24 Stunden)

TLE

AktuellSource: CelesTrak SupGP

Epoche: Sep 14, 2026, 20:45 UTC

1 57744C 23131N   26257.86506944 -.00002685  00000+0 -97273-4 0  2572
2 57744  43.0005 169.5851 0001418 254.7375 292.5160 15.27576225    11

Verfolge STARLINK-30363 in Echtzeit mit AllMySat

Download on the App Store